Weather History for Melbourne, FL

Change the Weather History Date:

Friday, July 12, 2013

  Actual Average Record
Temperature  
Mean Temperature 83 °F 82 °F  
Max Temperature 91 °F 91 °F 97 °F (1987)
Min Temperature 75 °F 73 °F 66 °F (1965)
Degree Days  
Heating Degree Days 0 0  
Month to date heating degree days 0 0  
Since 1 June heating degree days 0 0  
Since 1 July heating degree days 0 0  
Cooling Degree Days 18 17  
Month to date cooling degree days 213 193  
Year to date cooling degree days 1572 1381  
Since 1 June cooling degree days 711 655  
Growing Degree Days 33 (Base 50)    
Moisture  
Dew Point 72 °F    
Average Humidity 72    
Maximum Humidity 94    
Minimum Humidity 49    
Precipitation  
Precipitation 0.04 in 0.19 in 2.50 in (2008)
Month to date precipitation 0.95 2.30  
Year to date precipitation 23.02 22.51  
Sea Level Pressure  
Sea Level Pressure 29.94 in    
Wind  
Wind Speed 4 mph (SSE)    
Max Wind Speed 15 mph    
Max Gust Speed 20 mph    
Visibility 10 miles    
Events Thunderstorm    
T = Trace of Precipitation, MM = Missing Value Source: NWS Daily Summary

Daily Weather History Graph

Daily Weather History Graph

Search for Another Location

Airport:

Trip Planner

Search our weather history database for the weather conditions in past years. The results will help you decide how hot, cold, wet, or windy it might be!

Date:

Astronomy

Jul. 12, 2013 Rise Set
Actual Time 6:34 AM EDT 8:21 PM EDT
Civil Twilight 6:08 AM EDT 8:48 PM EDT
Nautical Twilight 5:36 AM EDT 9:19 PM EDT
Astronomical Twilight 5:02 AM EDT 9:53 PM EDT
Moon 10:24 AM EDT (7/12) 10:59 PM EDT (7/12)
Length of Visible Light 14h 40m
Length of Day
13h 47m
Waxing Crescent, 17% of the Moon is Illuminated
Jul 12
Waxing Crescent
Jul 15
First Quarter
Jul 22
Full
Jul 29
Last Quarter
Aug 6
New

Hourly Weather History & Observations

Time (EDT) Temp. Heat Index Dew Point Humidity Pressure Visibility Wind Dir Wind Speed Gust Speed Precip Events Conditions
12:53 AM 75.9 °F - 73.0 °F 91% 29.97 in 10.0 mi South 3.5 mph - N/A   Clear
1:53 AM 75.9 °F - 72.0 °F 87% 29.96 in 10.0 mi South 4.6 mph - N/A   Clear
2:53 AM 75.9 °F - 72.0 °F 87% 29.93 in 10.0 mi Calm Calm - N/A   Clear
3:53 AM 75.9 °F - 72.0 °F 87% 29.94 in 10.0 mi Calm Calm - N/A   Clear
4:53 AM 75.0 °F - 72.0 °F 90% 29.93 in 10.0 mi Calm Calm - N/A   Clear
5:53 AM 75.0 °F - 72.0 °F 90% 29.94 in 10.0 mi Calm Calm - N/A   Clear
6:53 AM 75.0 °F - 72.0 °F 90% 29.94 in 10.0 mi Calm Calm - N/A   Clear
7:53 AM 78.1 °F - 73.0 °F 84% 29.95 in 10.0 mi Calm Calm - N/A   Clear
8:53 AM 81.0 °F 85.2 °F 72.0 °F 74% 29.96 in 10.0 mi WSW 5.8 mph - N/A   Clear
9:53 AM 82.9 °F 88.8 °F 73.0 °F 72% 29.97 in 10.0 mi Calm Calm - N/A   Clear
10:53 AM 86.0 °F 91.5 °F 71.1 °F 61% 29.96 in 10.0 mi South 6.9 mph - N/A   Clear
11:53 AM 89.1 °F 94.1 °F 70.0 °F 53% 29.95 in 10.0 mi WSW 8.1 mph - N/A   Clear
12:53 PM 91.0 °F 95.6 °F 69.1 °F 48% 29.94 in 10.0 mi South 8.1 mph - N/A   Scattered Clouds
1:53 PM 88.0 °F 95.6 °F 73.0 °F 61% 29.92 in 10.0 mi East 11.5 mph - N/A   Scattered Clouds
2:53 PM 89.1 °F 97.0 °F 73.0 °F 59% 29.91 in 10.0 mi ESE 10.4 mph - N/A   Scattered Clouds
3:53 PM 86.0 °F 93.0 °F 73.0 °F 65% 29.89 in 10.0 mi SE 11.5 mph - N/A   Mostly Cloudy
4:16 PM 87.8 °F 93.8 °F 71.6 °F 58% 29.91 in 10.0 mi NW 6.9 mph 16.1 mph N/A Thunderstorm Thunderstorm
4:53 PM 87.1 °F 92.0 °F 70.0 °F 57% 29.92 in 10.0 mi NW 9.2 mph 19.6 mph N/A   Mostly Cloudy
5:38 PM 87.8 °F 92.6 °F 69.8 °F 55% 29.93 in 10.0 mi NNE 9.2 mph - N/A Thunderstorm Overcast
5:53 PM 82.9 °F 88.0 °F 72.0 °F 69% 29.94 in 10.0 mi NNE 6.9 mph - N/A Thunderstorm Overcast
6:07 PM 82.4 °F 88.2 °F 73.4 °F 74% 29.94 in 10.0 mi ENE 11.5 mph - N/A Thunderstorm Overcast
6:53 PM 79.0 °F - 73.9 °F 84% 29.92 in 10.0 mi North 3.5 mph - 0.04 in   Mostly Cloudy
7:53 PM 79.0 °F - 73.9 °F 84% 29.92 in 10.0 mi SE 4.6 mph - 0.00 in   Clear
8:53 PM 78.1 °F - 73.9 °F 87% 29.93 in 10.0 mi South 3.5 mph - 0.00 in   Clear
9:53 PM 78.1 °F - 73.0 °F 84% 29.95 in 10.0 mi South 4.6 mph - N/A   Clear
10:53 PM 77.0 °F - 73.0 °F 88% 29.96 in 10.0 mi South 3.5 mph - N/A   Clear
11:53 PM 77.0 °F - 72.0 °F 84% 29.96 in 10.0 mi SSW 3.5 mph - N/A   Clear